www.pogodaiklimat.ru

Погода и климат >> Архив погоды >> Бельгия >> Антверпен


ПОГОДА в Антверпене

АРХИВ ПОГОДЫ в Антверпене

Время (UTC), дата Ветер
(напр.,м/с)
 
Видим.   Явления Облачность Т
(С)
Тd
(С)
f
(%)
Тe
(С)
Тes
(С)
Комфортность P
(гПа)
Po
(гПа)
Тmin
(С)
Tmax
(С)
R
(мм)
R24
(мм)
S
(см)
01 20.06 ЮЗ 3
{5}
4000 м дымка 10/10 240 м
[]
+16.8 +16.0 95 +17 +17 1010.0 1008.5
02 20.06 З 4
{7}
4800 м дымка 10/10 240 м
[]
+16.3 +15.3 94 +16 +16 1010.0 1008.4
03 20.06 ЮЗ 4
{7}
5000 м дымка 10/10 270 м
[]
+15.7 +14.5 93 +15 +15 1010.3 1008.8
04 20.06 ЮЗ 3
{7}
5000 м дымка ясно +15.3 +14.1 93 +15 +15 1010.8 1009.2
05 20.06 ЮЗ 3
{6}
7000 м 9/3 360 м
[St Ac trans Ci fib]
+15.2 +13.7 91 +14 +15 1011.1 1009.5
06 20.06 ЮЗ 3
{7}
7000 м 9/8 420 м
[Sc Ac trans Ci fib]
+15.7 +13.5 87 +15 +16 1011.4 1009.8 +15.2 3
07 20.06 ЮЗ 4
{9}
10 км 9/9 450 м
[Cu Sc]
+16.2 +13.1 82 +15 +16 1011.6 1010.1
08 20.06 З 5
{8}
15 км 10/9 480 м
[Cu Sc]
+16.6 +12.9 79 +16 +16 1011.9 1010.4
09 20.06 З 6
{10}
15 км 10/9 540 м
[Cu Sc]
+17.1 +12.5 74 +16 +16 1012.3 1010.7
10 20.06 ЮЗ 4
{8}
15 км 9/4 630 м
[Cu Sc Ac trans]
+18.5 +13.2 71 +19 +22 1012.5 1010.9
11 20.06 ЮЗ 3
{7}
15 км 8/3 800 м
[Cu Sc Ac trans]
+19.5 +12.3 63 +21 +27 комфорт 1012.6 1011.1
12 20.06 З 5
{10}
15 км 9/6 900 м
[Cu Sc Ac trans Ci fib]
+20.1 +12.4 61 +22 +24 комфорт 1012.7 1011.2
13 20.06 СЗ 6
{9}
15 км 5/3 960 м
[Cu Sc Ac trans Ci fib]
+19.4 +13.3 68 +20 +24 1013.1 1011.5
14 20.06 СЗ 4
{9}
25 км в посл. час ливневой дождь 9/6 900 м
[Cu Sc Ac trans Ci fib]
+20.0 +13.4 66 +22 +24 комфорт 1013.1 1011.6
15 20.06 З 6
{11}
25 км {ливн. осадки} 9/8 750 м
[Cu Sc Ac trans]
+19.0 +12.5 66 +20 +20 1013.8 1012.3
16 20.06 СЗ 5
{10}
25 км 6/5 720 м
[Cu Sc Ac trans Ci fib]
+19.6 +12.9 65 +21 +23 комфорт 1014.0 1012.4
17 20.06 СЗ 5
{8}
25 км 6/5 1000 м
[Cu Sc Ac trans Ci sp]
+19.1 +12.0 63 +20 +21 1014.2 1012.7
18 20.06 СЗ 4
{11}
40 км 8/8 1500 м
[Cu Sc]
+18.4 +11.4 64 +19 +19 1014.6 1013.1 +21.1
19 20.06 З 4
{6}
45 км 8/8 1500 м
[Sc diur, vesp]
+18.1 +10.7 62 +18 +18 1015.2 1013.7
20 20.06 З 3
{5}
45 км 3/3 1500 м
[Sc diur, vesp Ac trans]
+17.4 +9.4 59 +17 +17 1015.8 1014.2
21 20.06 З 3
{6}
45 км 1/0
[Ac trans Ci sp]
+16.2 +8.7 61 +16 +16 1016.3 1014.7
22 20.06 З 3
{5}
45 км ясно +15.4 +9.2 67 +15 +15 1016.7 1015.1
23 20.06 З 3
{5}
50 км ясно +14.7 +8.8 68 +14 +14 1017.0 1015.4
00 21.06 ЮЗ 3
{6}
45 км ясно +13.8 +9.0 73 +13 +13 1017.2 1015.7
01 21.06 ЮЗ 3
{5}
45 км ясно +13.2 +9.1 76 +12 +12 1017.4 1015.9
02 21.06 ЮЗ 3
{5}
40 км ясно +12.4 +9.2 81 +11 +11 1017.6 1016.1
03 21.06 ЮЗ 3
{5}
35 км 3/3 420 м
[]
+12.0 +9.2 83 +10 +10 1017.9 1016.3
04 21.06 ЮЗ 2
{4}
30 км 9/9 330 м
[]
+11.8 +9.5 86 +11 +11 1018.1 1016.5
05 21.06 ЮЗ 3
{4}
20 км 8/8 330 м
[St Ci fib]
+11.9 +9.8 87 +10 +10 1018.4 1016.8
06 21.06 З 3
{6}
20 км 1/1 360 м
[Cu hum]
+13.4 +10.7 84 +12 +14 1018.7 1017.1 +11.6
07 21.06 ЮЗ 4
{6}
20 км 4/4 450 м
[Cu hum]
+14.8 +10.8 77 +14 +16 1019.1 1017.5
08 21.06 З 3
{7}
20 км 5/5 600 м
[Cu hum]
+16.1 +10.6 70 +16 +19 1019.4 1017.8
09 21.06 З 3
{7}
20 км 5/5 720 м
[Cu hum]
+17.8 +11.2 65 +18 +23 1019.6 1018.0
10 21.06 З 3
{7}
20 км 5/5 870 м
[Cu hum]
+17.9 +9.5 58 +18 +24 1019.8 1018.3
11 21.06 З 3
{7}
20 км 6/6 1080 м
[Cu Sc]
+18.4 +9.4 56 +19 +25 1019.9 1018.4
12 21.06 З 3
{7}
20 км 6/6 1140 м
[Cu Sc]
+19.1 +8.4 50 +20 +26 1020.1 1018.5
13 21.06 З 4
{8}
20 км 6/6 1200 м
[Cu Sc]
+18.9 +7.9 49 +19 +24 1020.4 1018.8
14 21.06 СЗ 5
{8}
20 км 6/6 1350 м
[Cu Sc]
+19.3 +8.8 51 +20 +23 1020.4 1018.9
15 21.06 СЗ 4
{9}
20 км 5/5 1300 м
[Cu Sc]
+20.0 +8.8 48 +21 +25 комфорт 1020.5 1019.0
16 21.06 СЗ 5
{9}
20 км 3/3 1380 м
[Sc diur, vesp]
+19.3 +8.1 48 +20 +22 1020.7 1019.1
17 21.06 СЗ 4
{9}
20 км 3/3 1380 м
[Cu hum Ac trans Ci fib]
+19.1 +7.3 46 +20 +21 1020.9 1019.4
18 21.06 СЗ 3
{9}
35 км ясно +18.6 +8.2 51 +19 +20 1021.2 1019.7 +20.3
19 21.06 С 3
{7}
40 км ясно +17.7 +8.3 54 +18 +18 1021.6 1020.0
20 21.06 С 3
{5}
50 км ясно +16.1 +7.3 56 +16 +16 1021.9 1020.3
21 21.06 С 2
{7}
50 км 1/0
[Ci fib]
+15.1 +7.5 60 +15 +15 1022.5 1020.9
22 21.06 С 2
{3}
45 км ясно +14.2 +8.7 69 +14 +14 1022.9 1021.4
23 21.06 СВ 1
{3}
45 км ясно +13.0 +8.7 75 +13 +13 1023.2 1021.6
00 22.06 С 2
{7}
45 км ясно +12.8 +8.8 77 +12 +12 1023.1 1021.6
01 22.06 С 2
{4}
45 км ясно +12.3 +8.9 80 +11 +11 1023.2 1021.6
02 22.06 С 2
{4}
40 км ясно +11.5 +9.0 85 +10 +10 1022.8 1021.2
03 22.06 С 1
{4}
30 км ясно +10.9 +8.8 87 +11 +11 1022.9 1021.3
04 22.06 СВ 2
{3}
26 км ясно +11.0 +8.8 86 +10 +10 1022.7 1021.1
05 22.06 СВ 2
{4}
20 км 1/1 1500 м
[Sc Ci fib]
+12.4 +9.5 82 +11 +12 1022.7 1021.1
06 22.06 СВ 3
{4}
20 км 1/1 1500 м
[Sc Ci fib]
+13.3 +10.4 83 +12 +14 1022.8 1021.3 +10.7
07 22.06 СВ 3
{5}
20 км 1/1 1500 м
[Sc Ci fib]
+15.5 +11.2 76 +15 +19 1022.6 1021.0
08 22.06 СВ 2
{4}
20 км 1/1 1500 м
[Sc Ci fib]
+17.6 +12.2 71 +18 +26 1022.5 1021.0
09 22.06 СВ 3
{5}
20 км 1/0
[Ci fib]
+19.1 +10.1 56 +20 +30 1022.2 1020.7
10 22.06 В 3
{6}
20 км 1/0
[Ci fib]
+20.2 +9.4 50 +22 +34 комфорт 1021.9 1020.4
11 22.06 СВ 4
{7}
20 км 4/4 1300 м
[Cu hum Ci fib]
+21.0 +10.7 52 +23 +30 комфорт 1021.6 1020.1
12 22.06 В 2
{7}
20 км 4/4 1300 м
[Cu hum Ci fib]
+21.8 +10.5 49 +24 +34 комфорт 1021.2 1019.7
13 22.06 нст 2
{8}
20 км 4/4 1500 м
[Cu hum Ci fib]
+23.0 +10.6 45 +25 +35 комфорт 1020.7 1019.2
14 22.06 нст 2
{6}
20 км 4/4 1500 м
[Cu hum Ci fib]
+23.3 +11.4 47 +26 +34 жарко 1020.3 1018.8
15 22.06 нст 1
{8}
20 км 4/4 1500 м
[Cu hum]
+23.4 +11.2 46 +26 +33 жарко 1020.0 1018.5
16 22.06 С 4
{7}
20 км 4/4 1500 м
[Cu hum]
+23.7 +11.1 45 +25 +28 комфорт 1019.4 1017.9
17 22.06 С 4
{8}
20 км 3/3 1500 м
[Cu hum Ci fib]
+23.3 +11.4 47 +26 +27 жарко 1018.9 1017.4
18 22.06 СВ 5
{8}
35 км 1/1 1500 м
[Sc diur, vesp]
+23.0 +11.3 48 +25 +26 комфорт 1018.7 1017.2 +24.1
19 22.06 СВ 3
{6}
35 км ясно +22.1 +10.8 49 +24 +24 комфорт 1018.8 1017.3
20 22.06 С 3
{5}
45 км ясно +20.2 +12.8 62 +22 +22 комфорт 1019.2 1017.7
21 22.06 С 3
{6}
45 км ясно +18.9 +13.4 70 +20 +20 1019.7 1018.1
22 22.06 СВ 3
{6}
40 км ясно +18.0 +12.6 71 +18 +18 1019.8 1018.2
23 22.06 СВ 3
{5}
40 км ясно +17.3 +12.8 75 +17 +17 1019.5 1018.0
00 23.06 СВ 3
{6}
35 км ясно +16.9 +12.5 75 +17 +17 1019.2 1017.6
01 23.06 СВ 2
{5}
29 км ясно +16.1 +12.4 79 +16 +16 1019.1 1017.6
02 23.06 СВ 2
{3}
28 км ясно +15.5 +12.1 80 +15 +15 1019.3 1017.7
03 23.06 СВ 2
{5}
22 км ясно +14.9 +12.2 84 +15 +15 1019.0 1017.5
04 23.06 С 1
{3}
20 км ясно +14.5 +12.2 86 +15 +15 1018.8 1017.3
05 23.06 СВ 2
{3}
20 км 3/0
[Ci fib]
+15.7 +12.9 83 +16 +17 1018.8 1017.2
06 23.06 В 2
{5}
20 км 3/0
[Ci fib]
+17.2 +13.4 78 +18 +20 1019.0 1017.4 +14.4
07 23.06 В 1
{3}
20 км 3/0
[Ci fib]
+19.8 +15.1 74 +23 +29 комфорт 1018.9 1017.3
08 23.06 В 3
{5}
20 км 3/0
[Ci fib]
+21.5 +15.3 68 +25 +32 комфорт 1018.5 1017.0
09 23.06 ЮВ 3
{5}
20 км 3/0
[Ci fib]
+24.0 +16.0 61 +27 +37 жарко 1018.4 1016.9
10 23.06 В 3
{5}
20 км 3/0
[Ci fib]
+25.7 +16.3 56 +29 +41 душно 1018.2 1016.7
11 23.06 В 5
{8}
20 км 3/0
[Ci fib]
+26.8 +15.6 50 +30 +38 душно 1017.6 1016.1
12 23.06 В 4
{8}
20 км 4/1 1500 м
[Cu hum Ci fib]
+27.6 +15.7 48 +31 +40 душно 1017.2 1015.7
13 23.06 В 5
{9}
20 км 4/3 1500 м
[Cu hum Ci fib]
+28.8 +15.4 44 +32 +37 душно 1016.8 1015.3
14 23.06 В 5
{9}
20 км 4/3 1500 м
[Cu hum Ci fib]
+28.2 +15.6 46 +31 +36 душно 1016.5 1015.0
15 23.06 В 4
{9}
20 км 4/3 1500 м
[Cu hum Ci fib]
+28.4 +16.4 48 +32 +37 душно 1016.1 1014.7
16 23.06 В 4
{7}
20 км 4/1 1500 м
[Cu hum Ci fib]
+28.2 +16.9 50 +32 +36 душно 1016.2 1014.7
17 23.06 ЮВ 4
{6}
20 км 6/0
[Ac trans Ci fib]
+27.6 +16.9 52 +31 +33 душно 1015.8 1014.3
18 23.06 В 3
{9}
45 км 8/0
[Ac cast Ci sp]
+26.7 +17.6 57 +31 +32 душно 1015.6 1014.1 +28.9
19 23.06 В 2
{5}
45 км 6/0
[Ac trans Ci sp]
+25.3 +19.1 69 +30 +31 душно 1015.9 1014.4
20 23.06 В 1
{3}
45 км 4/0
[Ac trans Ci sp]
+24.4 +17.7 66 +28 +28 душно 1016.4 1014.9
21 23.06 В 2
{5}
30 км 9/0
[Ci sp]
+23.7 +17.8 70 +28 +28 душно 1016.8 1015.3
22 23.06 В 3
{4}
40 км ясно +22.0 +17.7 77 +27 +27 душно 1016.9 1015.4
00 24.06 В 1
{5}
30 км ясно +20.5 +17.2 81 +25 +25 комфорт 1017.5 1016.0
01 24.06 В 2
{2}
40 км ясно +20.1 +17.0 82 +24 +24 комфорт 1017.2 1015.7
02 24.06 ЮВ 2
{3}
35 км ясно +19.3 +16.5 84 +22 +22 комфорт 1017.2 1015.6
03 24.06 В 2
{3}
30 км ясно +18.4 +16.1 86 +20 +20 1017.0 1015.5
04 24.06 ЮВ 2
{4}
27 км ясно +18.1 +16.0 88 +19 +19 1017.1 1015.6
05 24.06 В 2
{4}
30 км 6/0
[Ac trans Ci fib]
+20.1 +17.1 83 +24 +24 комфорт 1017.2 1015.6
06 24.06 ЮВ 3
{5}
30 км 9/0
[Ac trans Ci fib]
+20.7 +16.8 78 +25 +26 комфорт 1017.1 1015.6 +17.7
07 24.06 ЮВ 3
{5}
30 км 9/0
[Ac trans Ci fib]
+22.9 +17.0 69 +28 +31 душно 1017.5 1016.0
08 24.06 ЮВ 4
{7}
30 км 9/0
[Ac trans Ci fib]
+25.1 +17.5 63 +29 +34 душно 1017.5 1016.0
09 24.06 Ю 3
{7}
30 км 9/0
[Ac trans Ci sp]
+26.5 +18.0 60 +31 +39 душно 1017.5 1016.0
10 24.06 ЮВ 3
{6}
30 км 9/1 1080 м
[Cu hum Ac trans Ci fib]
+27.7 +18.5 57 +33 +39 очень
душно
1017.1 1015.6
11 24.06 ЮВ 3
{6}
30 км 9/1 1320 м
[Cu hum Ci fib]
+28.7 +17.6 51 +33 +43 очень
душно
1017.1 1015.6
12 24.06 ЮВ 3
{7}
30 км 9/1 1440 м
[Cu hum Ci fib]
+30.1 +18.0 48 +35 +45 очень
душно
1017.3 1015.8
13 24.06 ЮВ 4
{7}
30 км 9/1 1440 м
[Cu hum Ci fib]
+30.4 +17.9 47 +35 +43 очень
душно
1017.2 1015.7
14 24.06 ЮВ 2
{6}
30 км 9/1 1500 м
[Cu hum Ci fib]
+31.0 +16.6 42 +34 +44 душно 1017.2 1015.8
15 24.06 ЮВ 2
{7}
30 км 9/1 1500 м
[Cu hum Ci fib]
+30.6 +17.9 47 +35 +43 очень
душно
1017.2 1015.7
16 24.06 ЮВ 2
{4}
30 км 9/1 1500 м
[Cu hum Ac trans Ci fib]
+30.9 +18.2 47 +36 +39 очень
душно
1017.1 1015.6
17 24.06 В 2
{4}
30 км 9/1 1500 м
[Cu hum Ci fib]
+29.3 +19.2 55 +35 +38 очень
душно
1017.0 1015.5
18 24.06 В 2
{7}
30 км 9/1 1500 м
[Cu hum Ci fib]
+29.4 +18.6 52 +34 +36 очень
душно
1016.7 1015.2 +31.8
19 24.06 СЗ 3
{5}
30 км 8/1 1500 м
[Cu hum Ci fib]
+26.9 +19.0 62 +32 +32 очень
душно
1017.0 1015.5
20 24.06 С 2
{4}
30 км 8/1 1500 м
[Sc diur, vesp Ci fib]
+25.7 +20.2 72 +32 +32 очень
душно
1017.1 1015.6
21 24.06 С 1
{5}
30 км 8/1 1500 м
[Sc Ci fib]
+24.5 +19.5 74 +30 +30 очень
душно
1017.3 1015.8
22 24.06 С 1
{3}
21 км ясно +23.8 +19.6 77 +29 +29 душно 1017.1 1015.6
23 24.06 С 1
{3}
17 км ясно +23.4 +19.6 79 +30 +30 очень
душно
1016.9 1015.4
00 25.06 нст 1
{5}
17 км ясно +23.3 +19.2 78 +30 +30 очень
душно
1016.5 1015.0
01 25.06 СВ 1
{3}
13 км ясно +22.8 +18.9 79 +29 +29 очень
душно
1016.3 1014.8
02 25.06 СВ 1
{1}
10 км ясно +21.8 +19.4 86 +27 +27 душно 1015.9 1014.4
03 25.06 В 1
{3}
н/о ясно +21.0 +18.7 87 +27 +27 душно 1015.4 1013.9
04 25.06 В 1
{2}
22 км ясно +20.6 +18.4 87 +26 +26 душно 1015.3 1013.8
05 25.06 В 1
{2}
30 км 9/0
[Ac trans Ci sp]
+21.4 +18.5 84 +26 +27 душно 1015.6 1014.1
06 25.06 В 2
{4}
30 км 9/0
[Ac trans Ci fib]
+22.0 +18.4 80 +27 +29 душно 1015.3 1013.8 +20.1
07 25.06 В 2
{4}
30 км 5/0
[Ac trans Ci fib]
+23.8 +18.9 74 +29 +33 душно 1015.5 1014.0
08 25.06 ЮВ 3
{5}
30 км 4/0
[Ac trans Ci fib]
+26.6 +19.1 63 +32 +38 очень
душно
1015.5 1014.0
09 25.06 ЮВ 3
{5}
30 км 3/0
[Ci fib]
+28.0 +19.8 61 +34 +44 очень
душно
1015.5 1014.0
10 25.06 ЮВ 4
{6}
30 км 3/0
[Ci fib]
+29.8 +20.2 56 +36 +46 очень
душно
1015.5 1014.0
11 25.06 Ю 4
{6}
30 км 3/0
[Ci fib]
+31.1 +19.6 50 +37 +48 очень
душно
1015.7 1014.2
12 25.06 Ю 3
{7}
30 км 9/0
[Ci fib]
+32.3 +18.3 43 +37 +49 очень
душно
1015.9 1014.4
13 25.06 ЮЗ 5
{8}
30 км 9/0
[Ci fib]
+32.9 +18.4 42 +37 +44 очень
душно
1016.0 1014.5
14 25.06 ЮЗ 4
{8}
30 км 6/1 1500 м
[Cu hum Ci fib]
+32.8 +18.6 43 +38 +45 очень
душно
1016.2 1014.8
15 25.06 ЮЗ 4
{9}
30 км 6/1 1500 м
[Cu hum Ci fib]
+32.6 +18.7 44 +38 +43 очень
душно
1016.5 1015.0
16 25.06 ЮЗ 4
{8}
30 км 6/1 1500 м
[Cu hum Ci fib]
+33.1 +18.6 42 +38 +41 очень
душно
1016.7 1015.2
17 25.06 ЮЗ 4
{9}
30 км 6/1 1500 м
[Cu hum Ci fib]
+31.7 +19.5 48 +37 +39 очень
душно
1017.2 1015.7
18 25.06 СЗ 6
{9}
30 км 6/1 1500 м
[Cu hum Ci fib]
+28.0 +19.7 61 +34 +35 очень
душно
1018.3 1016.8 +33.5
19 25.06 СЗ 6
{8}
30 км 6/1 1500 м
[Cu hum Ci fib]
+25.1 +18.6 67 +30 +30 душно 1019.2 1017.7
20 25.06 СЗ 5
{9}
30 км 6/0
[Ci fib]
+23.7 +18.7 74 +28 +28 душно 1019.9 1018.3
21 25.06 СЗ 4
{9}
8000 м 6/0
[Ci fib]
+22.4 +17.8 75 +27 +27 душно 1020.8 1019.2
22 25.06 З 4
{7}
5000 м {дымка} ?/? +21.0 +17.3 79 +25 +25 комфорт 1021.2 1019.6
23 25.06 З 3
{6}
4900 м {дымка} ?/? +19.5 +16.9 85 +22 +22 комфорт 1021.5 1020.0
00 26.06 СЗ 4
{9}
4700 м {дымка} ?/? +18.7 +16.7 88 +20 +20 1021.7 1020.1
01 26.06 З 3
{6}
4200 м дымка 10/10 210 м
[]
+18.1 +16.5 90 +18 +18 1022.0 1020.5
02 26.06 З 4
{5}
2900 м дымка 10/10 180 м
[]
+17.7 +16.3 92 +17 +17 1022.3 1020.8
03 26.06 З 4
{6}
3800 м дымка 10/10 180 м
[]
+17.3 +15.8 91 +17 +17 1023.0 1021.4
04 26.06 З 4
{6}
2600 м дымка 10/10 120 м
[]
+17.1 +16.0 93 +17 +17 1023.6 1022.0
05 26.06 СЗ 4
{6}
4000 м дымка 9/9 180 м
[St]
+17.3 +16.1 93 +17 +17 1023.9 1022.4
06 26.06 СЗ 4
{6}
4000 м дымка 9/9 150 м
[St]
+17.6 +16.2 91 +17 +18 1024.6 1023.0 +16.9
07 26.06 СЗ 3
{5}
5000 м 9/9 210 м
[St]
+18.2 +16.3 89 +19 +19 1025.2 1023.6
08 26.06 СЗ 4
{6}
5000 м 9/9 240 м
[St]
+18.4 +16.4 88 +19 +19 1025.6 1024.0
09 26.06 С 3
{6}
6000 м 9/9 300 м
[St]
+18.9 +16.3 85 +20 +21 1025.8 1024.3
10 26.06 СЗ 2
{6}
6000 м 9/9 300 м
[St]
+19.8 +16.9 83 +23 +24 комфорт 1026.4 1024.8
11 26.06 С 3
{5}
7000 м 8/6 420 м
[Sc Ci fib]
+22.0 +17.3 75 +26 +32 душно 1026.3 1024.8
12 26.06 С 3
{7}
9000 м 4/1 600 м
[Cu hum Ci fib]
+23.6 +17.5 69 +28 +40 душно 1026.1 1024.6
13 26.06 нст 3
{6}
10 км 3/0
[Ci fib]
+25.5 +18.1 64 +30 +43 душно 1026.0 1024.5
14 26.06 С 4
{7}
10 км 3/0
[Ci fib]
+26.1 +18.1 61 +31 +39 очень
душно
1025.6 1024.1
15 26.06 СВ 4
{8}
10 км 3/0
[Ci fib]
+26.2 +18.3 62 +31 +37 очень
душно
1025.4 1023.9
16 26.06 С 5
{8}
10 км 1/1 800 м
[Cu hum]
+25.1 +18.6 67 +30 +33 душно 1025.3 1023.8
17 26.06 СВ 5
{10}
10 км 1/1 840 м
[Cu hum]
+24.5 +17.4 65 +29 +30 душно 1025.2 1023.6
18 26.06 С 5
{10}
10 км ясно +23.9 +16.9 65 +28 +28 душно 1025.2 1023.7 +26.4
19 26.06 С 5
{9}
10 км ясно +22.5 +14.8 62 +26 +26 жарко 1025.8 1024.3
20 26.06 С 4
{8}
25 км 1/0
[Ci fib]
+21.0 +15.3 70 +24 +24 комфорт 1026.4 1024.9
21 26.06 С 5
{9}
25 км 1/0
[Ci fib]
+19.1 +14.8 76 +20 +20 1027.0 1025.4
22 26.06 С 5
{9}
30 км ясно +17.8 +14.4 80 +17 +17 1027.6 1026.0
23 26.06 С 4
{7}
30 км ясно +17.0 +14.2 84 +17 +17 1027.8 1026.2

 

Местоположение метеостанции Антверпен (Бельгия): широта 51.20 долгота 4.47 высота над уровнем моря 14 м.

В архиве по умолчанию представлена погода в Антверпене за последнюю неделю. Архивные данные за месяц целиком и за предыдущие месяцы, начиная с января 2011 года, Вы можете получить, выбрав интересующий диапазон дат из раскрывающегося списка и нажав кнопку "Ввод!".


*Определитесь, кто Вы:
робот инопланетянин человек

Внимание! Время в таблицах - всемирное. Для получения местного времени необходимо прибавить поправку, которая равна 1 ч.

Смотрите также архив погоды в соседних городах и на ближайших метеорологических станциях:

Погода в Вунстдрехте (Нидерланды) (29 км)
Погода в Брюсселе (Бельгия) (34 км)
Погода в Толене (Нидерланды) (36 км)
Погода в Ретье (Бельгия) (39 км)
Погода в Вестдорпе (Нидерланды) (42 км)
Погода в Гансверте (Нидерланды) (43 км)
Погода в Уккеле (Бельгия) (45 км)
Погода в Генте (Бельгия) (45 км)
Погода в Шаффене (Бельгия) (47 км)
Погода в Мелле (Бельгия) (52 км)

Пояснения к столбцам:

Ветер - указаны скорость ветра в м/с - средняя за 10 мин, порывы в срок и между сроками (в фигурных скобках) и направление, откуда дует ветер: С - северный, СВ - северо-восточный, В - восточный, ЮВ - юго-восточный, Ю - южный, ЮЗ - юго-западный, З - западный, СЗ - северо-западный.
Видимость - горизонтальная дальность видимости в метрах или километрах. При видимости от 1 до 10 км при отсутствии осадков обычно наблюдается дымка, при ухудшении видимости до 1 км и менее - туман. В сухую погоду видимость может ухудшаться дымом, пылью или мглою.
Явления - указаны атмосферные явления, наблюдавшиеся в срок или в последний час перед сроком; фигурными скобками обозначены явления, наблюдавшиеся между сроками (за 1-3 часа до срока); квадратными скобками обозначены град или гололедные отложения с указанием их диаметра в мм.
Облачность - указаны через наклонную черту общая и нижняя облачность в баллах и высота нижней границы облаков в метрах; квадратными скобками обозначены формы облаков: Ci - перистые, Cs - перисто-слоистые, Cc - перисто-кучевые, Ac - высококучевые, As - высокослоистые, Sc - слоисто-кучевые, Ns - слоисто-дождевые, Cu - кучевые, Cb - кучево-дождевые. Подробнее классификацию облаков см. в Атласе облаков (PDF).
T - Температура воздуха - температура, измеренная на высоте 2 м над землей.
Td - Температура точки росы - температура, при понижении до которой содержащийся в воздухе водяной пар достигнет насыщения.
f - Относительная влажность воздуха - влажноcть воздуха, измеренная на высоте 2 м над землей.
Te - Эффективная температура - температура, которую ощущает одетый по сезону человек в тени. Характеристика душности погоды. При расчете учитывается влияние влажности воздуха и скорости ветра на теплоощущения человека.
Tes - Эффективная температура на солнце - температура, которую ощущает человек, с поправкой на солнечный нагрев. Характеристика знойности погоды. Зависит от высоты солнца над горизонтом, облачности и скорости ветра. Ночью, в пасмурную погоду, а также при ветре 12 м/с и более поправка равна нулю.
P - Атмосферное давление - приведенное к уровню моря атмосферное давление.
Po - Атмосферное давление - измеренное на уровне метеостанции атмосферное давление.
Tmin - Минимальная температура - минимум температуры воздуха на высоте 2 м над землей.
Tmax - Максимальная температура - максимум температуры воздуха на высоте 2 м над землей.
R - Количество осадков - Количество выпавших осадков за период времени, мм. При наведении курсора мыши на число - период времени, за который выпало указанное количество осадков.
R24 - Количество осадков - Количество выпавших осадков за 24 часа, мм.
S - Снежный покров - Высота снежного покрова, см. При наведении курсора мыши на число - состояние снежного покрова и степень покрытия местности в баллах.